Terug naar catalogus

FENGYUN 1C DEB

ActiefSSO
NORAD 30768·DEBRIS·🇨🇳 China

Gelanceerd May 10, 1999 vanaf Taiyuan Satellite Launch Center

Loading…

Volgende Passages (komende 24 uur)

TLE

VersSource: Space-Track

Epoch: Sep 14, 2026, 12:53 UTC

1 30768U 99025AUE 26257.53743935  .00003907  00000-0  98652-3 0  9992
2 30768  98.6164 358.3792 0022406 342.0679 151.4675 14.51475800 18689

Volg FENGYUN 1C DEB in realtime met AllMySat

Download on the App Store